RH
27 27 27 25 23 22 20 19 17 16 16 18 21 19 17 16 19 26 40 52 73 99 92 94 97 87 77 62 47 37 29 29 31 35 38 39 39 41 42 37 29 26 20
29 28 26 26 25 23 21 19 19 19 20 20 21 20 20 22 22 22 27 44 51 89 94 95 97 93 83 79 65 49 44 37 35 35 38 41 40 38 37 35 30 25 23
34 30 27 27 26 25 24 21 21 23 23 23 24 24 24 27 27 26 26 27 32 46 76 84 98 95 87 80 73 63 54 45 43 38 34 37 36 38 37 34 32 30 27
36 31 27 26 27 27 27 26 26 25 26 27 27 29 28 27 29 32 32 32 52 45 53 81 81 87 95 90 90 78 66 58 50 48 43 35 31 34 34 34 32 30 27
40 36 32 31 32 31 31 30 30 29 28 29 30 31 33 35 35 36 35 36 45 46 47 47 82 91 91 93 93 93 79 71 63 55 46 44 36 31 30 31 32 31 29
45 42 37 37 35 37 36 35 34 34 34 32 32 33 37 41 42 42 42 44 45 46 50 62 61 83 93 90 94 94 90 79 75 64 56 50 47 37 33 31 31 32 31
46 50 43 41 41 38 38 39 39 40 40 38 39 40 43 47 47 46 47 50 50 55 71 66 58 61 79 85 91 93 93 91 84 78 71 68 68 63 52 42 40 35 34
49 51 54 48 45 46 44 40 41 43 45 49 46 44 50 55 50 54 53 49 47 53 62 75 68 71 98 74 84 89 86 93 83 77 80 78 73 69 59 51 41 37 42
55 55 55 50 46 45 49 55 55 57 57 59 55 53 55 58 58 59 60 62 57 60 73 68 76 69 78 92 81 79 85 93 91 87 79 77 72 61 54 48 55 53 51
54 57 58 52 46 45 43 46 55 64 68 72 63 56 59 67 73 74 77 71 72 70 67 70 82 74 73 80 83 86 91 91 89 84 79 74 72 73 68 59 55 54 53
52 52 63 61 51 47 48 47 53 60 72 81 71 61 65 67 74 74 76 74 79 73 75 75 75 96 87 84 93 90 96 95 93 90 81 82 77 72 68 60 60 66 75
52 54 67 68 59 50 45 56 68 77 80 87 71 66 76 77 77 74 77 82 79 84 79 78 99 87 78 91 94 92 91 91 89 82 80 77 75 72 69 71 78 85 86
55 62 70 79 58 49 48 78 83 85 88 78 67 72 90 95 89 83 81 80 87 87 85 80 84 98 95 98 95 96 86 84 84 82 79 75 71 73 76 78 89 84 82
68 69 75 79 62 51 52 89 82 79 78 74 70 81 88 95 93 85 84 85 89 87 87 87 98 92 98 98 97 96 94 91 89 83 78 77 76 82 90 94 90 80 72
74 71 77 75 66 53 62 92 84 78 81 76 69 82 94 96 97 91 89 91 86 89 90 95 98 96 97 97 97 97 95 88 83 80 77 85 93 95 92 80 71 63 58
80 78 76 72 65 64 69 95 88 91 90 81 72 87 98 98 98 98 94 97 91 91 95 98 98 98 98 98 96 89 86 84 85 92 96 96 90 79 68 63 57 55 63
83 77 73 72 73 70 79 97 97 95 95 90 79 92 95 98 98 97 98 98 98 97 98 98 98 98 98 98 97 96 94 94 97 97 94 79 70 63 62 68 67 61 55
80 75 73 77 79 77 78 97 98 98 98 94 87 94 99 98 98 98 97 98 98 98 98 98 98 98 97 97 97 98 97 97 96 84 73 70 73 75 69 69 63 52 43
82 79 78 83 86 81 80 84 98 97 94 96 92 97 99 98 98 98 98 98 96 96 98 98 98 98 98 98 98 97 97 87 81 82 82 77 73 75 69 59 49 41 40
82 82 91 97 95 89 86 80 98 97 97 96 94 96 99 98 98 97 97 95 94 96 97 97 98 98 98 98 98 94 90 92 84 80 77 75 72 65 58 47 42 39 35
76 85 90 97 98 93 90 84 98 96 95 97 92 95 98 99 98 98 98 98 98 98 98 98 98 98 98 97 97 93 84 79 76 74 72 68 64 58 47 42 38 33 26
76 78 81 93 95 97 97 88 98 98 95 96 96 95 95 97 98 98 98 98 98 98 98 98 97 97 97 93 85 83 77 73 72 70 69 67 57 46 43 38 31 24 23
83 79 75 77 91 98 98 97 93 98 98 99 96 96 97 97 97 98 98 98 98 98 98 98 97 95 84 79 73 71 70 71 71 72 68 57 48 43 37 28 25 26 28
67 72 76 79 82 95 98 98 92 97 98 98 98 96 98 97 98 99 98 98 98 98 97 98 94 85 80 75 72 70 72 73 73 67 58 49 43 34 28 29 30 31 31
61 63 63 82 81 87 97 98 98 94 98 98 98 98 98 97 98 98 99 99 98 98 98 97 90 84 77 71 70 73 74 75 70 61 50 40 32 31 33 33 34 33 32
57 60 59 71 78 82 91 98 98 98 96 98 98 98 98 98 98 98 98 97 98 98 97 90 77 71 70 72 74 76 76 72 64 51 39 36 36 36 38 38 36 34 32